sat.trackr.live / text

‹ back to catalog

STARLINK-31108

NORAD 58738 · 2024-005L

PAYLOAD ACTIVE UNKNOWN

§ Identity

Operator
Country
US
Launch date
2024-01-07
Launch site
AFETR
Launch vehicle
Mass (kg)
RCS (m²)

Purposes: comms

External: N2YO · Heavens-Above · Gunter

§ Orbital elements

Epoch: 2026-09-20T04:52:17.455584Z

Period
94.27 min
Inclination
43.0028°
Eccentricity
0.0001133
Mean motion
15.27575545 rev/d
Perigee alt
482.3 km
Apogee alt
483.8 km
Semi-major
6,861.2 km
B*
8.3161e-6
RAAN
201.0945°
Arg perigee
269.3508°
Mean anomaly
90.7214°
Rev number
15,018

§ Raw data

STARLINK-311081 58738U 24005L   26263.20297981 -.00000033  00000+0  83161-5 0  99992 58738  43.0028 201.0945 0001133 269.3508  90.7214 15.27575545150186

JSON: /api/v1/satellites/58738 · /tle

For live sub-satellite position, see the globe view (requires WebGL).

§ Visibility from observer

Set your observer location to see the next 7 days of passes ≥ 10°. The values pass through the URL so the page stays shareable.

No JS? Fill the form by hand. The geolocation button needs JavaScript.